StationID,Date,MaxTemp,MinTemp,Precipitation,Snowfall,SnowDepth
"UKW00015035","1950-09-26",53.96,44.96,0.00,0.00,0.00
"UKW00015035","1950-09-27",53.96,39.92,0.00,0.00,0.00
"UKW00015035","1950-09-28",66.02,53.06,0.00,0.00,0.00
"UKW00015035","1950-09-29",55.04,46.04,0.00,0.00,0.00
"UKW00015035","1950-09-30",59.00,50.00,0.00,0.00,0.00
"UKW00015035","1950-10-01",57.02,46.04,0.00,0.00,0.00
"UKW00015035","1950-10-02",55.94,46.04,8.00,0.00,0.00
"UKW00015035","1950-10-03",57.02,42.98,0.00,0.00,0.00
"UKW00015035","1950-10-04",62.96,51.98,0.00,0.00,0.00
"UKW00015035","1950-10-05",71.96,51.08,0.00,0.00,0.00
"UKW00015035","1950-10-06",60.98,50.00,0.00,0.00,0.00
"UKW00015035","1950-10-07",59.00,48.92,0.00,0.00,0.00
"UKW00015035","1950-10-08",55.04,42.08,5.00,0.00,0.00
"UKW00015035","1950-10-09",51.98,39.02,0.00,0.00,0.00
"UKW00015035","1950-10-10",55.04,44.96,0.00,0.00,0.00
"UKW00015035","1950-10-11",53.96,41.00,0.00,0.00,0.00
"UKW00015035","1950-10-12",60.98,48.02,0.00,0.00,0.00
"UKW00015035","1950-10-13",62.06,46.94,0.00,0.00,0.00
"UKW00015035","1950-10-14",55.94,44.96,0.00,0.00,0.00
"UKW00015035","1950-10-15",57.02,42.08,8.00,0.00,0.00
"UKW00015035","1950-10-16",55.94,48.92,0.00,0.00,0.00
"UKW00015035","1950-10-17",57.92,48.92,0.00,0.00,0.00
"UKW00015035","1950-10-18",62.96,46.94,3.00,0.00,0.00
"UKW00015035","1950-10-19",60.08,48.02,0.00,0.00,0.00
"UKW00015035","1950-10-20",55.04,42.98,0.00,0.00,0.00
"UKW00015035","1950-10-21",50.00,37.94,0.00,0.00,0.00
"UKW00015035","1950-10-22",53.06,44.96,0.00,0.00,0.00
"UKW00015035","1950-10-23",53.06,44.06,0.00,0.00,0.00
"UKW00015035","1950-10-24",53.06,42.08,0.00,0.00,0.00
"UKW00015035","1950-10-25",50.00,37.94,0.00,0.00,0.00
"UKW00015035","1950-10-26",51.08,33.98,0.00,0.00,0.00
"UKW00015035","1950-10-27",46.94,30.92,0.00,0.00,0.00
"UKW00015035","1950-10-28",44.06,32.00,5.00,0.00,0.00
"UKW00015035","1950-10-29",46.94,32.00,0.00,0.00,0.00
"UKW00015035","1950-10-30",42.98,30.02,274.00,0.00,0.00
"UKW00015035","1950-10-31",48.92,35.06,0.00,0.00,0.00
"UKW00015035","1950-11-01",46.94,37.94,5.00,0.00,0.00
"UKW00015035","1950-11-02",46.04,39.92,56.00,0.00,0.00
"UKW00015035","1950-11-03",48.02,42.08,0.00,0.00,0.00
"UKW00015035","1950-11-04",46.94,42.08,0.00,0.00,0.00
"UKW00015035","1950-11-05",44.96,37.04,0.00,0.00,0.00
"UKW00015035","1950-11-06",46.04,39.02,0.00,0.00,0.00
"UKW00015035","1950-11-07",48.02,35.96,0.00,0.00,0.00
"UKW00015035","1950-11-08",51.08,39.92,0.00,0.00,0.00
"UKW00015035","1950-11-09",51.98,42.98,0.00,0.00,0.00
"UKW00015035","1950-11-10",46.04,42.08,130.00,0.00,0.00
"UKW00015035","1950-11-11",50.00,37.04,0.00,0.00,0.00
"UKW00015035","1950-11-12",44.96,39.02,46.00,0.00,0.00
"UKW00015035","1950-11-13",46.94,39.02,0.00,0.00,0.00
"UKW00015035","1950-11-14",44.06,35.96,0.00,0.00,0.00
"UKW00015035","1950-11-15",42.98,35.06,0.00,0.00,0.00
"UKW00015035","1950-11-16",42.08,35.06,30.00,0.00,0.00
"UKW00015035","1950-11-17",42.98,35.96,8.00,0.00,0.00
"UKW00015035","1950-11-18",46.04,33.08,3.00,0.00,0.00
"UKW00015035","1950-11-19",46.04,35.06,10.00,0.00,0.00
"UKW00015035","1950-11-20",42.98,37.94,56.00,0.00,0.00
"UKW00015035","1950-11-21",44.96,41.00,185.00,0.00,0.00
"UKW00015035","1950-11-22",44.96,42.08,211.00,0.00,0.00
"UKW00015035","1950-11-23",44.06,41.00,30.00,0.00,0.00
"UKW00015035","1950-11-24",42.08,37.94,0.00,0.00,0.00
"UKW00015035","1950-11-25",42.08,33.98,0.00,0.00,0.00
"UKW00015035","1950-11-26",41.00,32.00,0.00,0.00,0.00
"UKW00015035","1950-11-27",39.92,26.06,48.00,0.00,0.00
"UKW00015035","1950-11-28",53.96,39.92,64.00,0.00,0.00
"UKW00015035","1950-11-29",48.02,39.02,48.00,0.00,0.00
"UKW00015035","1950-11-30",51.08,37.94,0.00,0.00,0.00
"UKW00015035","1950-12-01",48.02,37.94,0.00,0.00,0.00
"UKW00015035","1950-12-02",41.00,30.92,10.00,0.00,0.00
"UKW00015035","1950-12-03",35.06,26.96,5.00,3.00,0.00
"UKW00015035","1950-12-04",32.00,24.08,53.00,64.00,0.00
"UKW00015035","1950-12-05",33.08,24.98,0.00,0.00,76.00
"UKW00015035","1950-12-06",37.94,26.06,3.00,0.00,51.00
"UKW00015035","1950-12-07",44.06,35.96,38.00,0.00,25.00
"UKW00015035","1950-12-08",41.00,35.96,0.00,0.00,0.00
"UKW00015035","1950-12-09",44.96,37.94,0.00,0.00,0.00
"UKW00015035","1950-12-10",48.02,37.94,25.00,0.00,0.00
"UKW00015035","1950-12-11",37.94,33.08,0.00,0.00,0.00
"UKW00015035","1950-12-12",37.04,28.94,0.00,0.00,0.00
"UKW00015035","1950-12-13",33.08,24.98,0.00,0.00,0.00
"UKW00015035","1950-12-14",33.98,21.92,470.00,51.00,0.00
"UKW00015035","1950-12-15",30.02,19.94,211.00,25.00,51.00
"UKW00015035","1950-12-16",33.08,26.06,5.00,8.00,76.00
"UKW00015035","1950-12-17",35.96,28.04,160.00,51.00,76.00
"UKW00015035","1950-12-18",35.96,30.92,429.00,51.00,25.00
"UKW00015035","1950-12-19",37.04,32.00,0.00,0.00,76.00
"UKW00015035","1950-12-20",33.98,28.04,0.00,0.00,51.00
"UKW00015035","1950-12-21",33.98,21.92,0.00,0.00,25.00
"UKW00015035","1950-12-22",33.08,32.00,0.00,0.00,25.00
"UKW00015035","1950-12-23",35.06,32.00,0.00,0.00,0.00
"UKW00015035","1950-12-24",35.96,32.00,3.00,0.00,0.00
"UKW00015035","1950-12-25",33.98,30.02,0.00,0.00,0.00
"UKW00015035","1950-12-26",35.06,28.04,15.00,0.00,0.00
"UKW00015035","1950-12-27",33.98,33.08,8.00,0.00,0.00
"UKW00015035","1950-12-28",33.98,32.00,0.00,0.00,0.00
"UKW00015035","1950-12-29",33.08,28.04,0.00,0.00,0.00
"UKW00015035","1950-12-30",32.00,26.06,36.00,51.00,0.00
"UKW00015035","1950-12-31",33.98,30.02,43.00,61.00,51.00
"UKW00015035","1951-01-01",33.98,26.96,8.00,0.00,102.00
"UKW00015035","1951-01-02",33.98,28.04,15.00,10.00,76.00
"UKW00015035","1951-01-03",37.04,30.02,0.00,0.00,76.00
"UKW00015035","1951-01-04",39.92,28.04,23.00,0.00,51.00
"UKW00015035","1951-01-05",46.04,33.98,58.00,0.00,0.00
"UKW00015035","1951-01-06",48.02,35.06,89.00,0.00,0.00
"UKW00015035","1951-01-07",42.98,37.94,0.00,0.00,0.00
"UKW00015035","1951-01-08",44.96,37.94,69.00,0.00,0.00
"UKW00015035","1951-01-09",39.02,33.98,0.00,0.00,0.00
"UKW00015035","1951-01-10",39.02,33.08,15.00,0.00,0.00
"UKW00015035","1951-01-11",48.02,35.06,15.00,0.00,0.00
"UKW00015035","1951-01-12",42.08,33.98,0.00,0.00,0.00
"UKW00015035","1951-01-13",41.00,35.06,15.00,0.00,0.00
"UKW00015035","1951-01-14",42.08,35.06,0.00,0.00,0.00
"UKW00015035","1951-01-15",39.92,33.98,0.00,0.00,0.00
"UKW00015035","1951-01-16",42.98,35.06,25.00,0.00,0.00
"UKW00015035","1951-01-17",51.98,42.98,18.00,0.00,0.00
"UKW00015035","1951-01-18",46.94,39.02,25.00,0.00,0.00
"UKW00015035","1951-01-19",50.00,39.92,20.00,0.00,0.00
"UKW00015035","1951-01-20",50.00,46.94,5.00,0.00,0.00
"UKW00015035","1951-01-21",48.92,46.04,0.00,0.00,0.00
"UKW00015035","1951-01-22",46.04,35.96,0.00,0.00,0.00
"UKW00015035","1951-01-23",39.02,33.98,0.00,0.00,0.00
"UKW00015035","1951-01-24",42.08,32.00,0.00,0.00,0.00
"UKW00015035","1951-01-25",37.94,35.96,0.00,0.00,0.00
"UKW00015035","1951-01-26",41.00,33.98,3.00,0.00,0.00
"UKW00015035","1951-01-27",37.94,26.96,0.00,0.00,0.00
"UKW00015035","1951-01-28",37.94,26.96,0.00,0.00,0.00
"UKW00015035","1951-01-29",30.92,26.06,0.00,0.00,0.00
"UKW00015035","1951-01-30",30.02,26.96,0.00,0.00,0.00
"UKW00015035","1951-01-31",39.02,24.08,0.00,0.00,0.00
"UKW00015035","1951-02-01",41.00,33.08,0.00,0.00,0.00
"UKW00015035","1951-02-02",44.06,39.02,0.00,0.00,0.00
"UKW00015035","1951-02-03",39.02,33.08,64.00,0.00,0.00
"UKW00015035","1951-02-04",39.02,30.92,53.00,0.00,0.00
"UKW00015035","1951-02-05",44.96,37.94,0.00,0.00,0.00
"UKW00015035","1951-02-06",42.08,30.92,0.00,0.00,0.00
"UKW00015035","1951-02-07",42.08,30.92,0.00,0.00,0.00
"UKW00015035","1951-02-08",48.02,33.98,20.00,0.00,0.00
"UKW00015035","1951-02-09",41.00,33.08,13.00,0.00,0.00
"UKW00015035","1951-02-10",46.04,30.92,8.00,0.00,0.00
"UKW00015035","1951-02-11",39.02,35.06,170.00,0.00,0.00
"UKW00015035","1951-02-12",44.06,33.98,0.00,0.00,0.00
"UKW00015035","1951-02-13",37.94,30.02,0.00,0.00,0.00
"UKW00015035","1951-02-14",37.94,33.08,64.00,0.00,0.00
"UKW00015035","1951-02-15",37.94,30.92,3.00,0.00,0.00
"UKW00015035","1951-02-16",44.96,30.92,91.00,0.00,0.00
"UKW00015035","1951-02-17",44.06,35.06,15.00,0.00,0.00
"UKW00015035","1951-02-18",44.96,33.98,10.00,0.00,0.00
"UKW00015035","1951-02-19",44.06,33.98,0.00,0.00,0.00
"UKW00015035","1951-02-20",44.06,33.08,15.00,0.00,0.00
"UKW00015035","1951-02-21",42.08,33.08,0.00,0.00,0.00
"UKW00015035","1951-02-22",42.08,33.08,0.00,0.00,0.00
"UKW00015035","1951-02-23",44.96,33.98,0.00,0.00,0.00
"UKW00015035","1951-02-24",42.08,33.98,8.00,0.00,0.00
"UKW00015035","1951-02-25",39.92,32.00,5.00,0.00,0.00
"UKW00015035","1951-02-26",37.04,28.04,51.00,0.00,0.00
"UKW00015035","1951-02-27",42.98,30.92,0.00,0.00,0.00
"UKW00015035","1951-02-28",44.96,33.08,0.00,0.00,0.00
"UKW00015035","1951-03-01",48.02,32.00,0.00,0.00,0.00
"UKW00015035","1951-03-02",44.96,30.92,33.00,0.00,0.00
"UKW00015035","1951-03-03",39.92,28.94,0.00,0.00,0.00
"UKW00015035","1951-03-04",44.96,32.00,0.00,0.00,0.00
"UKW00015035","1951-03-05",42.08,30.92,0.00,0.00,0.00
"UKW00015035","1951-03-06",39.92,28.04,38.00,0.00,0.00
"UKW00015035","1951-03-07",48.92,33.08,0.00,0.00,0.00
"UKW00015035","1951-03-08",41.00,35.06,0.00,0.00,0.00
"UKW00015035","1951-03-09",35.96,33.98,8.00,0.00,0.00
"UKW00015035","1951-03-10",39.02,32.00,15.00,0.00,0.00
"UKW00015035","1951-03-11",39.92,33.08,23.00,0.00,0.00
"UKW00015035","1951-03-12",39.02,30.02,,,
"UKW00015035","1951-03-13",48.92,30.02,,,
"UKW00015035","1951-03-14",44.06,41.00,,,
"UKW00015035","1951-03-15",50.00,37.94,,,
"UKW00015035","1951-03-16",51.08,33.98,,,
"UKW00015035","1951-03-17",51.08,44.96,,,
"UKW00015035","1951-03-18",50.00,37.94,,,
"UKW00015035","1951-03-19",41.00,33.08,,,
"UKW00015035","1951-03-20",42.08,28.94,,,
"UKW00015035","1951-03-21",44.06,26.06,,,
"UKW00015035","1951-03-22",57.02,37.94,,,
